Location: Saluda
(35.2377°N, 82.3468°W)
Time: 05:46:14
(UTC+00:00)

Vanguard 2 - Pass Details

Date: 05 October 2022
Orbit: 553 x 2933 km, 32.9° (Epoch: 26 November)

Event Time Altitude Azimuth Distance (km) Brightness Sun altitude
Rises 17:23:40 0° 240° (WSW) 4,126 11.6 49.8°
Reaches altitude 10° 17:26:04 10° 236° (WSW) 3,412 11.3 49.8°
Maximum altitude 17:35:03 63° 158° (SSE) 2,091 11.4 49.6°
Drops below altitude 10° 17:49:47 10° 82° (E) 5,370 11.8 49.1°
Sets 17:54:34 0° 80° (E) 6,595 12.1 48.9°
